Location: Arborea
(39.7744°N, 8.5819°E)
Time: 05:17:05
(UTC+00:00)

Cosmos 2322 - Pass Details

Date: 31 May 2022
Orbit: 840 x 855 km, 71.0° (Epoch: 03 July)

Event Time Altitude Azimuth Distance (km) Brightness Sun altitude
Exits shadow 22:59:11 18° 260° (W) 1,972 5.5 -27.9°
Maximum altitude 23:02:12 28° 304° (NW) 1,563 5.4 -28.0°
Drops below altitude 10° 23:07:03 10° 2° (N) 2,494 7.1 -28.1°
Sets 23:09:54 0° 14° (NNE) 3,433 8.0 -28.1°
